sat.trackr.live / text

‹ back to catalog

STARLINK-36808

NORAD 67881 · 2026-035C

PAYLOAD ACTIVE UNKNOWN

§ Identity

Operator
Country
US
Launch date
2026-02-21
Launch site
AFWTR
Launch vehicle
Mass (kg)
RCS (m²)

Purposes: comms

External: N2YO · Heavens-Above · Gunter

§ Orbital elements

Epoch: 2026-09-19T06:02:39.502176Z

Period
93.91 min
Inclination
97.2834°
Eccentricity
0.0001159
Mean motion
15.33454685 rev/d
Perigee alt
464.7 km
Apogee alt
466.3 km
Semi-major
6,843.7 km
B*
5.2177e-4
RAAN
194.1487°
Arg perigee
104.4383°
Mean anomaly
255.6988°
Rev number
3,365

§ Raw data

STARLINK-368081 67881U 26035C   26262.25184609  .00016812  00000+0  52177-3 0  99912 67881  97.2834 194.1487 0001159 104.4383 255.6988 15.33454685 33652

JSON: /api/v1/satellites/67881 · /tle

For live sub-satellite position, see the globe view (requires WebGL).

§ Visibility from observer

Set your observer location to see the next 7 days of passes ≥ 10°. The values pass through the URL so the page stays shareable.

No JS? Fill the form by hand. The geolocation button needs JavaScript.